Preview of NWS' New Version of Forecast
This preview is not operational and should not be used for support decisions.

Regional Weather Roundup (RWR)

Issued by National Weather Service (NWS)

                            
000
ASUS45 KABQ 210610
RWRNM 
NEW MEXICO REGIONAL WEATHER ROUNDUP
NATIONAL WEATHER SERVICE ALBUQUERQUE NM
1100 PM MST WED FEB 20 2019

NOTE: "FAIR" MEANS FEW OR NO CLOUDS BELOW 12,000 FEET AGL WITH NO
       SIGNIFICANT WEATHER OR OBSTRUCTIONS TO VISION.

      THIS PRODUCT IS RELEASED AS TWO VERSIONS.  ONE VERSION NEAR
      THE TOP OF THE HOUR CONTAINING PRELIMINARY DATA FROM ALBUQUERQUE
      AND OTHER STATIONS.  A FINAL VERSION WITH ADDITIONAL DATA IS 
      ISSUED ABOUT 10 MINUTES AFTER THE HOUR.
 
NMZ501-503-504-510>518-210700-
NORTHWEST PLATEAU/NORTHCENTRAL MOUNTAINS
  
CITY           SKY/WX    TMP DP  RH WIND       PRES   REMARKS
FARMINGTON     CLOUDY    26  16  65 E10       29.69F WCI  16          
6HR MIN TEMP:  25; 6HR MAX TEMP:  28;                                

LOS ALAMOS     FAIR      24   9  53 CALM      29.73F                  
SANTA FE       FAIR      19  12  74 N5        29.72F WCI  12          
6HR MIN TEMP:  19; 6HR MAX TEMP:  32;                                

TAOS           MOCLDY    12   7  80 NW3       29.75F                  
ANGEL FIRE       N/A      2  -1  85 SW3       29.72F                  

$$
NMZ402-403-502-505>509-210700-
WESTCENTRAL MOUNTAINS/SOUTHWEST MOUNTAINS
  
CITY           SKY/WX    TMP DP  RH WIND       PRES   REMARKS
GALLUP         CLOUDY    29  14  53 SW15G24   29.69S WCI  18          
6HR MIN TEMP:  25; 6HR MAX TEMP:  30;                                

GRANTS         FAIR      24  14  65 S8        29.72F WCI  15          
SILVER CITY    FAIR      19  11  70 N3        29.78S                  

$$
NMZ407-409-411-412-210700-
SOUTHERN DESERTS
  
CITY           SKY/WX    TMP DP  RH WIND       PRES   REMARKS
DEMING         FAIR      28   5  37 W6        29.79F WCI  22          
6HR MIN TEMP:  28; 6HR MAX TEMP:  51;                                

LAS CRUCES     FAIR      34  10  36 SW5       29.80F WCI  30          
ALAMOGORDO     FAIR      32   3  29 S9        29.81S WCI  24          
T OR C         FAIR      34   3  27 SE7       29.76S WCI  28          
6HR MIN TEMP:  34; 6HR MAX TEMP:  52;                                


$$
NMZ519>523-210700-
CENTRAL VALLEYS/CENTRAL HIGHLANDS
  
CITY           SKY/WX    TMP DP  RH WIND       PRES   REMARKS
ALBUQUERQUE    FAIR      30  14  51 NE5       29.74S WCI  25          
6HR MIN TEMP:  29; 6HR MAX TEMP:  41;                                

DOUBLE EAGLE   FAIR      23  14  67 N5        29.73F WCI  17          
MORIARTY ARPT  FAIR      14  11  87 NW3       29.75F                  
6HR MIN TEMP:  14; 6HR MAX TEMP:  38;                                

CLINES CORNERS FAIR      21   7  54 S15       29.73F WCI   8          
6HR MIN TEMP:  19; 6HR MAX TEMP:  31;                                

BELEN          FAIR      28  16  60 N5        29.74F WCI  23          
6HR MIN TEMP:  28; 6HR MAX TEMP:  43;                                

SOCORRO        FAIR      29   5  35 S6        29.75S WCI  23          
6HR MIN TEMP:  29; 6HR MAX TEMP:  47;                                


$$
NMZ524>526-539-540-210700-
SOUTHCENTRAL MOUNTAINS
  
CITY           SKY/WX    TMP DP  RH WIND       PRES   REMARKS
RUIDOSO        NOT AVBL                                               

$$
NMZ527>531-210700-
NORTHEAST HIGHLANDS/NORTHEAST PLAINS
  
CITY           SKY/WX    TMP DP  RH WIND       PRES   REMARKS
LAS VEGAS      FAIR      17   7  64 S9        29.72F WCI   6          
6HR MIN TEMP:  17; 6HR MAX TEMP:  33;                                

RATON          FAIR      17   7  64 NE6       29.71F WCI   9          
6HR MIN TEMP:  13; 6HR MAX TEMP:  33;                                

CLAYTON        FAIR      26  13  57 W9        29.75R WCI  17          
6HR MIN TEMP:  20; 6HR MAX TEMP:  37;                                


$$
NMZ532>537-210700-
EASTCENTRAL PLAINS
  
CITY           SKY/WX    TMP DP  RH WIND       PRES   REMARKS
SANTA ROSA     FAIR      25  10  51 CALM      29.76F                  
TUCUMCARI      FAIR      27   8  44 SW5       29.76F WCI  22          
6HR MIN TEMP:  24; 6HR MAX TEMP:  49;                                

CANNON AFB     FAIR      25   7  45 CALM      29.81S                  
6HR MIN TEMP:  22; 6HR MAX TEMP:  47;                                

CLOVIS AIRPORT FAIR      19   8  62 NE6       29.81F WCI  11          

$$
NMZ028-029-538-210700-
SOUTHEAST PLAINS
  
CITY           SKY/WX    TMP DP  RH WIND       PRES   REMARKS
ROSWELL        FAIR      33   2  26 SW12      29.78F WCI  24          
6HR MIN TEMP:  32; 6HR MAX TEMP:  58;                                

ARTESIA        FAIR      43   5  21 S8        29.81S                  
CARLSBAD       FAIR      45  10  24 SE9       29.80S                  
6HR MIN TEMP:  42; 6HR MAX TEMP:  55;                                

HOBBS          MOCLDY    45  14  29 S12       29.82F                  


$$